FW2580 Weather Reports


time (UTC)temp
F
wind
direction
speed
knots
gust
knots
rain 1hr
in
rain 24hr
in
rain mn
in
humidity
%
barometer
mb
20260507191531 91 130 2.6 8.7 0.00 0.00 0.00 1 1011.2
20260507190031 91 82 3.5 8.7 0.00 0.00 0.00 1 1011.4
20260507184522 90 242 1.7 7.8 0.00 0.00 0.00 1 1011.5
20260507183021 89 227 1.7 6.1 0.00 0.00 0.00 1 1011.9
20260507181513 89 205 1.7 7.0 0.00 0.00 0.00 1 1012.0
20260507180013 88 286 2.6 7.0 0.00 0.00 0.00 1 1012.2
20260507174505 88 219 0.9 6.1 0.00 0.00 0.00 1 1012.3
20260507173103 87 129 1.7 5.2 0.00 0.00 0.00 1 1012.5
20260507171559 86 229 1.7 6.1 0.00 0.00 0.00 1 1012.6
20260507170052 86 207 0.9 8.7 0.00 0.00 0.00 1 1012.6
20260507164548 85 203 0.0 7.0 0.00 0.00 0.00 1 1012.6
20260507163042 85 252 1.7 6.1 0.00 0.00 0.00 1 1012.7
20260507161540 85 82 0.9 5.2 0.00 0.00 0.00 1 1013.0
20260507160134 84 108 0.0 7.0 0.00 0.00 0.00 1 1013.0
20260507154530 84 84 1.7 5.2 0.00 0.00 0.00 1 1013.1
20260507153031 82 63 2.6 7.0 0.00 0.00 0.00 2 1013.1
20260507151521 81 67 2.6 6.1 0.00 0.00 0.00 4 1013.1
20260507150016 79 49 2.6 7.8 0.00 0.00 0.00 5 1013.2
20260507144512 77 47 2.6 7.0 0.00 0.00 0.00 9 1013.2
20260507143007 74 54 3.5 7.0 0.00 0.00 0.00 12 1013.1
20260507141502 71 34 2.6 6.1 0.00 0.00 0.00 17 1013.1
20260507140111 69 355 0.9 3.5 0.00 0.00 0.00 20 1013.1
20260507134557 68 5 0.9 2.6 0.00 0.00 0.00 22 1013.0
20260507133053 66 5 0.9 1.7 0.00 0.00 0.00 23 1013.0
20260507131550 66 360 0.0 0.0 0.00 0.00 0.00 22 1012.8
20260507130049 66 360 0.0 2.6 0.00 0.00 0.00 21 1012.8
20260507124549 67 9 0.9 2.6 0.00 0.00 0.00 19 1012.6
20260507123049 67 40 2.6 8.7 0.00 0.00 0.00 19 1012.7
20260507121547 64 360 1.7 4.3 0.00 0.00 0.00 22 1012.7
20260507120046 62 355 0.0 3.5 0.00 0.00 0.00 26 1012.7
20260507114545 62 360 0.0 0.0 0.00 0.00 0.00 27 1012.9
20260507113043 62 360 0.0 1.7 0.00 0.00 0.00 27 1013.0
20260507111544 63 304 0.0 0.0 0.00 0.00 0.00 25 1013.1
20260507110036 64 360 0.0 1.7 0.00 0.00 0.00 24 1013.2
20260507104536 64 47 0.0 0.0 0.00 0.00 0.00 23 1013.3
20260507103034 64 46 0.0 0.9 0.00 0.00 0.00 23 1013.4
20260507101552 65 360 0.0 0.9 0.00 0.00 0.00 22 1013.4
20260507100034 65 41 0.0 0.9 0.00 0.00 0.00 21 1013.5
20260507094530 66 43 1.7 4.3 0.00 0.00 0.00 20 1013.4
20260507093032 66 26 1.7 3.5 0.00 0.00 0.00 20 1013.3
20260507091548 65 42 1.7 4.3 0.00 0.00 0.00 19 1013.3
20260507090025 65 37 0.9 2.6 0.00 0.00 0.00 19 1013.4
20260507084527 65 31 0.0 1.7 0.00 0.00 0.00 21 1013.6
20260507083022 66 34 0.0 0.0 0.00 0.00 0.00 22 1013.6
20260507081523 66 34 0.0 1.7 0.00 0.00 0.00 21 1013.7
20260507080018 67 36 0.0 0.9 0.00 0.00 0.00 20 1013.7
20260507074518 67 36 0.9 2.6 0.00 0.00 0.00 19 1013.7
20260507073016 67 25 0.0 1.7 0.00 0.00 0.00 20 1013.9
20260507071512 68 194 0.0 0.9 0.00 0.00 0.00 19 1013.7
20260507070012 69 194 0.0 0.0 0.00 0.00 0.00 17 1013.7
20260507064513 70 194 0.0 0.9 0.00 0.00 0.00 15 1013.7
20260507063008 71 194 0.0 1.7 0.00 0.00 0.00 14 1013.7
20260507061522 73 194 0.0 0.0 0.00 0.00 0.00 13 1013.6
20260507060010 73 194 0.0 1.7 0.00 0.00 0.00 12 1013.7
20260507054506 74 196 0.0 1.7 0.00 0.00 0.00 12 1013.7
20260507053006 75 209 0.9 2.6 0.00 0.00 0.00 11 1013.8
20260507051506 76 224 0.9 4.3 0.00 0.00 0.00 10 1013.7
20260507050009 76 218 1.7 3.5 0.00 0.00 0.00 10 1013.7
20260507044511 76 249 0.9 3.5 0.00 0.00 0.00 11 1013.6
20260507043005 76 196 0.0 0.9 0.00 0.00 0.00 11 1013.5
20260507041506 77 198 0.0 1.7 0.00 0.00 0.00 10 1013.3
20260507040004 77 198 0.9 3.5 0.00 0.00 0.00 10 1013.1
20260507034503 78 206 0.9 3.5 0.00 0.00 0.00 10 1012.9
20260507033007 78 232 0.9 2.6 0.00 0.00 0.00 9 1012.8
20260507031501 79 182 0.9 4.3 0.00 0.00 0.00 9 1012.5
20260507030001 79 225 2.6 7.0 0.00 0.00 0.00 9 1012.3
20260507024501 80 236 2.6 7.0 0.00 0.00 0.00 9 1012.1
20260507023101 80 201 2.6 8.7 0.00 0.00 0.00 8 1012.0
20260507021618 81 207 2.6 8.7 0.00 0.00 0.00 8 1011.9
20260507020106 81 215 3.5 7.8 0.00 0.00 0.00 8 1011.8
20260507014615 81 200 3.5 7.8 0.00 0.00 0.00 8 1011.8
20260507013057 82 198 4.3 8.7 0.00 0.00 0.00 8 1011.8
20260507011557 82 150 5.2 8.7 0.00 0.00 0.00 8 1011.8
20260507010108 83 119 3.5 7.0 0.00 0.00 0.00 7 1011.8
20260507004554 83 221 4.3 7.8 0.00 0.00 0.00 7 1011.7
20260507003054 83 188 4.3 8.7 0.00 0.00 0.00 7 1011.7
20260507001555 83 207 4.3 8.7 0.00 0.00 0.00 7 1011.8
20260507000052 84 192 3.5 7.8 0.00 0.00 0.00 7 1011.8
20260506234552 84 269 2.6 7.8 0.00 0.00 0.00 7 1011.9
20260506233053 84 9 1.7 7.8 0.00 0.00 0.00 7 1012.0
20260506231547 84 269 2.6 6.1 0.00 0.00 0.00 7 1012.1
20260506230045 84 266 4.3 7.8 0.00 0.00 0.00 7 1012.2
20260506224544 84 218 3.5 7.0 0.00 0.00 0.00 7 1012.3
20260506223042 84 179 2.6 8.7 0.00 0.00 0.00 7 1012.5
20260506221543 84 248 1.7 8.7 0.00 0.00 0.00 7 1012.6
20260506220042 84 80 2.6 7.0 0.00 0.00 0.00 8 1012.9
20260506214539 84 229 5.2 9.6 0.00 0.00 0.00 8 1013.0
20260506213038 83 65 0.9 9.6 0.00 0.00 0.00 9 1013.5
20260506211538 81 245 1.7 7.0 0.00 0.00 0.00 10 1013.7
20260506210036 81 126 4.3 8.7 0.00 0.00 0.00 9 1013.9
20260506204537 82 202 1.7 13.0 0.00 0.00 0.00 9 1014.1
20260506203040 82 238 5.2 9.6 0.00 0.00 0.00 9 1014.3
20260506201544 83 49 1.7 6.1 0.00 0.00 0.00 9 1014.4
20260506200032 81 242 5.2 10.4 0.00 0.00 0.00 10 1014.5
20260506194539 81 115 1.7 8.7 0.00 0.00 0.00 9 1014.6
20260506193035 80 78 0.9 7.0 0.00 0.00 0.00 10 1014.7